Regional Weather Roundup
Issued by NWS

Home | Current Version | Previous Version | Text Only | Print | Product List | Glossary Off
Versions: 1 2 3 4 5 6 7 8 9 10 11 12 13 14 15 16 17 18 19 20 21 22 23 24 25 26 27 28 29 30 31 32 33 34 35 36 37 38 39 40 41 42 43 44 45 46 47 48 49 50

000
ASUS43 KTOP 230808
RWRKS

WEATHER ROUNDUP FOR KANSAS
NATIONAL WEATHER SERVICE GOODLAND KS
300 AM CDT WED JUL 23 2014

NOTE:  "FAIR" INDICATES FEW OR NO CLOUDS BELOW 12,000 FEET WITH NO
SIGNIFICANT WEATHER AND/OR OBSTRUCTIONS TO VISIBILITY.

KSZ001>006-013>018-027>032-041>047-230900-
NORTHWEST KANSAS

CITY           SKY/WX    TMP DP  RH WIND       PRES   REMARKS
GOODLAND       CLEAR     70  68  93 E10       30.28F
HAYS           CLEAR     75  66  73 E12       30.18F
HILL CITY      CLEAR     74  68  81 E8        30.21F
RUSSELL        CLEAR     77  70  79 NE10      30.16F
$$

KSZ061>065-074>080-084>089-230900-
SOUTHWEST KANSAS

CITY           SKY/WX    TMP DP  RH WIND       PRES   REMARKS
DODGE CITY     CLEAR     72  60  66 S8        30.20R
ELKHART          N/A     71  64  78 SW6         N/A
GARDEN CITY    CLEAR     72  63  73 S6        30.21S
GREAT BEND     CLEAR     77  70  78 NE7       30.16S
LIBERAL        CLEAR     72  64  78 S6        30.23R
PRATT          CLEAR     72  66  83 SW8       30.16F
$$

KSZ066>073-081>083-090>101-230900-
SOUTHEAST KANSAS

CITY           SKY/WX    TMP DP  RH WIND       PRES   REMARKS
CHANUTE        PTCLDY    78  74  87 NW3       30.10R
COFFEYVILLE    CLEAR     79  75  87 SW3       30.07R
HUTCHINSON     CLEAR     79  69  71 N6        30.14R
MEDICINE LODGE   N/A     78  72  81 E5        30.12S
NEWTON         PTCLDY    79  66  65 N8        30.17R
PARSONS        PTCLDY    75  73  93 CALM      30.09R FOG
WICHITA INTL   CLEAR     76  71  85 SW6       30.11S
WICHITA JABRA  PTCLDY    82  73  74 SW8       30.11S
WICHITA MCCONL PTCLDY    80  76  87 SW6       30.12R
WINFIELD       PTCLDY    77  74  90 SW3       30.11S
$$

KSZ007>012-019>026-033>040-048>060-102>105-230900-
NORTHEAST KANSAS

CITY           SKY/WX    TMP DP  RH WIND       PRES   REMARKS
CONCORDIA      PTCLDY    74  69  85 NE9       30.17F
EMPORIA        CLEAR     80  77  90 N9        30.11S
LAWRENCE       PTCLDY    80  71  74 NE5       30.10S HAZE
MANHATTAN      CLEAR     78  70  76 NE9       30.13F
MARYSVILLE     CLEAR     70  68  94 N3        30.17S
OLATHE IND     CLEAR     80  74  81 N9        30.10S
OLATHE EXE     CLEAR     80  73  79 NE10      30.09S
SALINA         CLOUDY    83  73  72 NE12      30.14S
TOPEKA BILLARD CLOUDY    80  72  76 N8        30.11S
TOPEKA FORBES  MOCLDY    80  71  74 NE7       30.11S
$$



USA.gov is the U.S. government's official web portal to all federal, state and local government web resources and services.